Time,TemperatureF,DewpointF,PressureIn,WindDirection,WindDirectionDegrees,WindSpeedMPH,WindSpeedGustMPH,Humidity,HourlyPrecipIn,Conditions,Clouds,dailyrainin,SolarRadiationWatts/m^2,SoftwareType,DateUTC
2013-07-09 00:00:00,67.3,51.5,29.98,SW,216,0.0,0.0,57,0.00,,,0.00,0,Wunderground v.1.15,2013-07-09 07:00:00,
2013-07-09 00:10:00,67.0,50.8,29.98,South,174,1.0,3.0,56,0.00,,,0.00,0,Wunderground v.1.15,2013-07-09 07:10:00,
2013-07-09 00:20:00,66.5,50.8,29.98,South,174,0.0,0.0,57,0.00,,,0.00,0,Wunderground v.1.15,2013-07-09 07:20:00,
2013-07-09 00:30:00,66.2,51.4,29.98,South,189,0.0,0.0,59,0.00,,,0.00,0,Wunderground v.1.15,2013-07-09 07:30:00,
2013-07-09 00:40:00,65.9,51.6,29.98,South,189,0.0,0.0,60,0.00,,,0.00,0,Wunderground v.1.15,2013-07-09 07:40:00,
2013-07-09 01:00:00,65.5,51.2,29.98,South,189,0.0,0.0,60,0.00,,,0.00,0,Wunderground v.1.15,2013-07-09 08:00:00,
2013-07-09 01:10:00,65.4,51.6,29.98,South,189,0.0,0.0,61,0.00,,,0.00,0,Wunderground v.1.15,2013-07-09 08:10:00,
2013-07-09 01:20:00,65.2,51.0,29.98,South,185,0.0,1.0,60,0.00,,,0.00,0,Wunderground v.1.15,2013-07-09 08:20:00,
2013-07-09 01:30:00,64.8,50.6,29.99,South,185,1.0,1.0,60,0.00,,,0.00,0,Wunderground v.1.15,2013-07-09 08:30:00,
2013-07-09 01:40:00,64.3,51.0,29.99,SSE,168,1.0,2.0,62,0.00,,,0.00,0,Wunderground v.1.15,2013-07-09 08:40:00,
2013-07-09 01:50:00,63.9,51.1,29.99,SSE,167,2.0,2.0,63,0.00,,,0.00,0,Wunderground v.1.15,2013-07-09 08:50:00,
2013-07-09 02:00:00,63.4,51.4,29.99,SSE,156,2.0,2.0,65,0.00,,,0.00,0,Wunderground v.1.15,2013-07-09 09:00:00,
2013-07-09 02:10:00,63.4,52.2,29.99,SSE,158,1.0,1.0,67,0.00,,,0.00,0,Wunderground v.1.15,2013-07-09 09:10:00,
2013-07-09 02:20:00,63.3,52.2,29.99,SSE,161,1.0,3.0,67,0.00,,,0.00,0,Wunderground v.1.15,2013-07-09 09:20:00,
2013-07-09 02:30:00,63.3,52.6,29.99,SSE,167,1.0,1.0,68,0.00,,,0.00,0,Wunderground v.1.15,2013-07-09 09:30:00,
2013-07-09 02:40:00,63.3,52.6,29.99,South,172,0.0,0.0,68,0.00,,,0.00,0,Wunderground v.1.15,2013-07-09 09:40:00,
2013-07-09 02:50:00,63.2,52.5,29.99,SSE,165,0.0,0.0,68,0.00,,,0.00,0,Wunderground v.1.15,2013-07-09 09:50:00,
2013-07-09 03:00:00,63.2,52.5,29.98,South,178,0.0,0.0,68,0.00,,,0.00,0,Wunderground v.1.15,2013-07-09 10:00:00,
2013-07-09 03:10:00,63.1,52.8,29.99,SSW,202,0.0,3.0,69,0.00,,,0.00,0,Wunderground v.1.15,2013-07-09 10:10:00,
2013-07-09 03:20:00,63.0,52.3,29.98,SW,220,1.0,1.0,68,0.00,,,0.00,0,Wunderground v.1.15,2013-07-09 10:20:00,
2013-07-09 03:30:00,62.9,52.6,29.99,WSW,252,1.0,3.0,69,0.00,,,0.00,0,Wunderground v.1.15,2013-07-09 10:30:00,
2013-07-09 03:40:00,62.6,52.7,29.98,WSW,250,1.0,1.0,70,0.00,,,0.00,0,Wunderground v.1.15,2013-07-09 10:40:00,
2013-07-09 04:20:00,62.1,52.2,29.99,WSW,251,0.0,0.0,70,0.00,,,0.00,0,Wunderground v.1.15,2013-07-09 11:20:00,
2013-07-09 04:30:00,62.0,52.5,29.99,WSW,251,0.0,0.0,71,0.00,,,0.00,0,Wunderground v.1.15,2013-07-09 11:30:00,
2013-07-09 04:40:00,61.7,52.2,29.99,WSW,251,0.0,0.0,71,0.00,,,0.00,0,Wunderground v.1.15,2013-07-09 11:40:00,
2013-07-09 04:50:00,61.6,52.5,30.00,WSW,251,0.0,0.0,72,0.00,,,0.00,0,Wunderground v.1.15,2013-07-09 11:50:00,
2013-07-09 05:00:00,61.5,52.4,30.00,WSW,250,0.0,0.0,72,0.00,,,0.00,0,Wunderground v.1.15,2013-07-09 12:00:00,
2013-07-09 05:10:00,61.4,52.7,30.00,WSW,250,0.0,0.0,73,0.00,,,0.00,0,Wunderground v.1.15,2013-07-09 12:10:00,
2013-07-09 05:20:00,61.3,52.6,30.00,WSW,251,0.0,0.0,73,0.00,,,0.00,0,Wunderground v.1.15,2013-07-09 12:20:00,
2013-07-09 05:30:00,61.1,52.7,30.00,WSW,251,0.0,2.0,74,0.00,,,0.00,0,Wunderground v.1.15,2013-07-09 12:30:00,
2013-07-09 05:40:00,61.0,52.7,30.01,WSW,251,0.0,0.0,74,0.00,,,0.00,0,Wunderground v.1.15,2013-07-09 12:40:00,
2013-07-09 05:50:00,60.8,52.5,30.01,WSW,251,0.0,0.0,74,0.00,,,0.00,0,Wunderground v.1.15,2013-07-09 12:50:00,
2013-07-09 06:00:00,60.6,52.6,30.01,WSW,251,0.0,2.0,75,0.00,,,0.00,0,Wunderground v.1.15,2013-07-09 13:00:00,
2013-07-09 06:10:00,60.4,52.4,30.01,WSW,251,0.0,0.0,75,0.00,,,0.00,7,Wunderground v.1.15,2013-07-09 13:10:00,
2013-07-09 06:20:00,60.2,52.6,30.02,WSW,251,0.0,0.0,76,0.00,,,0.00,21,Wunderground v.1.15,2013-07-09 13:20:00,
2013-07-09 06:30:00,60.3,53.1,30.02,WSW,251,0.0,0.0,77,0.00,,,0.00,26,Wunderground v.1.15,2013-07-09 13:30:00,
2013-07-09 06:40:00,60.4,53.2,30.02,WSW,251,0.0,0.0,77,0.00,,,0.00,35,Wunderground v.1.15,2013-07-09 13:40:00,
2013-07-09 06:50:00,60.5,53.3,30.02,WSW,251,0.0,0.0,77,0.00,,,0.00,37,Wunderground v.1.15,2013-07-09 13:50:00,
2013-07-09 07:00:00,60.8,53.9,30.03,WSW,251,0.0,1.0,78,0.00,,,0.00,144,Wunderground v.1.15,2013-07-09 14:00:00,
2013-07-09 07:10:00,61.6,54.7,30.03,WSW,251,0.0,0.0,78,0.00,,,0.00,183,Wunderground v.1.15,2013-07-09 14:10:00,
2013-07-09 07:20:00,62.2,54.9,30.03,WSW,251,0.0,0.0,77,0.00,,,0.00,223,Wunderground v.1.15,2013-07-09 14:20:00,
2013-07-09 07:30:00,62.9,55.2,30.03,WSW,253,1.0,1.0,76,0.00,,,0.00,258,Wunderground v.1.15,2013-07-09 14:30:00,
2013-07-09 07:40:00,64.0,55.9,30.03,WSW,253,0.0,0.0,75,0.00,,,0.00,288,Wunderground v.1.15,2013-07-09 14:40:00,
2013-07-09 07:50:00,64.9,56.0,30.04,WSW,257,0.0,0.0,73,0.00,,,0.00,320,Wunderground v.1.15,2013-07-09 14:50:00,
2013-07-09 08:00:00,66.0,56.3,30.04,West,277,0.0,1.0,71,0.00,,,0.00,352,Wunderground v.1.15,2013-07-09 15:00:00,
2013-07-09 08:10:00,66.9,56.4,30.04,North,355,0.0,1.0,69,0.00,,,0.00,387,Wunderground v.1.15,2013-07-09 15:10:00,
2013-07-09 08:20:00,67.8,56.4,30.03,North,355,0.0,0.0,67,0.00,,,0.00,420,Wunderground v.1.15,2013-07-09 15:20:00,
2013-07-09 08:30:00,69.0,57.2,30.03,North,351,1.0,1.0,66,0.00,,,0.00,450,Wunderground v.1.15,2013-07-09 15:30:00,
2013-07-09 08:40:00,69.6,56.9,30.03,NNW,346,0.0,0.0,64,0.00,,,0.00,483,Wunderground v.1.15,2013-07-09 15:40:00,
2013-07-09 08:50:00,70.6,57.8,30.03,NW,322,1.0,1.0,64,0.00,,,0.00,515,Wunderground v.1.15,2013-07-09 15:50:00,
2013-07-09 09:00:00,72.5,58.3,30.03,North,360,0.0,0.0,61,0.00,,,0.00,547,Wunderground v.1.15,2013-07-09 16:00:00,
2013-07-09 09:10:00,73.9,58.2,30.03,NNW,333,0.0,0.0,58,0.00,,,0.00,577,Wunderground v.1.15,2013-07-09 16:10:00,
2013-07-09 09:20:00,74.7,58.5,30.03,NNW,329,1.0,1.0,57,0.00,,,0.00,265,Wunderground v.1.15,2013-07-09 16:20:00,
2013-07-09 09:30:00,75.8,59.5,30.03,North,360,0.0,0.0,57,0.00,,,0.00,636,Wunderground v.1.15,2013-07-09 16:30:00,
2013-07-09 09:40:00,77.4,60.0,30.03,NNW,339,1.0,1.0,55,0.00,,,0.00,663,Wunderground v.1.15,2013-07-09 16:40:00,
2013-07-09 09:50:00,78.8,59.7,30.03,NW,307,0.0,2.0,52,0.00,,,0.00,694,Wunderground v.1.15,2013-07-09 16:50:00,
2013-07-09 10:00:00,80.1,59.8,30.02,NNW,332,0.0,0.0,50,0.00,,,0.00,715,Wunderground v.1.15,2013-07-09 17:00:00,
2013-07-09 10:10:00,80.9,59.9,30.03,NNW,327,1.0,2.0,49,0.00,,,0.00,745,Wunderground v.1.15,2013-07-09 17:10:00,
2013-07-09 10:20:00,81.7,59.5,30.02,North,360,2.0,2.0,47,0.00,,,0.00,768,Wunderground v.1.15,2013-07-09 17:20:00,
2013-07-09 10:30:00,82.8,59.9,30.02,NW,316,1.0,1.0,46,0.00,,,0.00,793,Wunderground v.1.15,2013-07-09 17:30:00,
2013-07-09 10:40:00,83.9,59.0,30.02,WNW,298,2.0,2.0,43,0.00,,,0.00,816,Wunderground v.1.15,2013-07-09 17:40:00,
2013-07-09 10:50:00,84.9,59.2,30.02,NNW,344,2.0,4.0,42,0.00,,,0.00,837,Wunderground v.1.15,2013-07-09 17:50:00,
2013-07-09 11:00:00,85.0,60.0,30.02,NW,309,4.0,4.0,43,0.00,,,0.00,777,Wunderground v.1.15,2013-07-09 18:00:00,
2013-07-09 11:10:00,85.1,60.1,30.02,NNW,337,3.0,4.0,43,0.00,,,0.00,870,Wunderground v.1.15,2013-07-09 18:10:00,
2013-07-09 11:20:00,85.3,60.3,30.02,NW,319,3.0,3.0,43,0.00,,,0.00,893,Wunderground v.1.15,2013-07-09 18:20:00,
2013-07-09 11:30:00,84.9,59.2,30.02,NNE,21,2.0,2.0,42,0.00,,,0.00,907,Wunderground v.1.15,2013-07-09 18:30:00,
2013-07-09 11:40:00,85.0,57.3,30.02,WNW,285,2.0,2.0,39,0.00,,,0.00,921,Wunderground v.1.15,2013-07-09 18:40:00,
2013-07-09 11:50:00,87.7,58.2,30.02,NNW,329,2.0,5.0,37,0.00,,,0.00,940,Wunderground v.1.15,2013-07-09 18:50:00,
2013-07-09 12:00:00,86.6,57.2,30.02,NNW,331,2.0,2.0,37,0.00,,,0.00,953,Wunderground v.1.15,2013-07-09 19:00:00,
2013-07-09 12:10:00,89.1,59.4,30.02,NNW,329,1.0,3.0,37,0.00,,,0.00,956,Wunderground v.1.15,2013-07-09 19:10:00,
2013-07-09 12:20:00,88.1,57.0,30.02,NW,321,2.0,5.0,35,0.00,,,0.00,970,Wunderground v.1.15,2013-07-09 19:20:00,
2013-07-09 12:30:00,89.5,55.7,30.02,NNE,26,3.0,5.0,32,0.00,,,0.00,977,Wunderground v.1.15,2013-07-09 19:30:00,
2013-07-09 12:40:00,89.6,56.7,30.02,North,355,2.0,4.0,33,0.00,,,0.00,981,Wunderground v.1.15,2013-07-09 19:40:00,
2013-07-09 12:50:00,90.7,53.1,30.01,WNW,294,2.0,2.0,28,0.00,,,0.00,981,Wunderground v.1.15,2013-07-09 19:50:00,
2013-07-09 13:00:00,92.8,52.9,30.01,North,5,2.0,2.0,26,0.00,,,0.00,983,Wunderground v.1.15,2013-07-09 20:00:00,
2013-07-09 13:10:00,93.7,52.6,30.01,West,267,1.0,1.0,25,0.00,,,0.00,984,Wunderground v.1.15,2013-07-09 20:10:00,
2013-07-09 13:20:00,94.2,54.1,30.00,NNE,30,2.0,4.0,26,0.00,,,0.00,984,Wunderground v.1.15,2013-07-09 20:20:00,
2013-07-09 13:30:00,95.1,55.9,30.00,NW,306,2.0,2.0,27,0.00,,,0.00,986,Wunderground v.1.15,2013-07-09 20:30:00,
2013-07-09 13:40:00,96.1,56.7,30.00,NNW,340,1.0,3.0,27,0.00,,,0.00,981,Wunderground v.1.15,2013-07-09 20:40:00,
2013-07-09 13:50:00,96.7,56.2,30.00,NNE,33,1.0,8.0,26,0.00,,,0.00,977,Wunderground v.1.15,2013-07-09 20:50:00,
2013-07-09 14:00:00,96.6,56.1,29.99,NW,321,1.0,1.0,26,0.00,,,0.00,969,Wunderground v.1.15,2013-07-09 21:00:00,
2013-07-09 14:10:00,96.9,55.3,29.99,NNE,17,1.0,3.0,25,0.00,,,0.00,963,Wunderground v.1.15,2013-07-09 21:10:00,
2013-07-09 14:20:00,96.8,56.3,29.99,West,272,2.0,3.0,26,0.00,,,0.00,951,Wunderground v.1.15,2013-07-09 21:20:00,
2013-07-09 14:30:00,97.6,54.7,29.99,ENE,60,1.0,1.0,24,0.00,,,0.00,942,Wunderground v.1.15,2013-07-09 21:30:00,
2013-07-09 14:40:00,96.5,56.0,29.99,NNW,333,2.0,4.0,26,0.00,,,0.00,933,Wunderground v.1.15,2013-07-09 21:40:00,
2013-07-09 14:50:00,97.1,54.3,29.98,West,266,1.0,1.0,24,0.00,,,0.00,918,Wunderground v.1.15,2013-07-09 21:50:00,
2013-07-09 15:00:00,98.1,55.1,29.98,NNW,331,1.0,7.0,24,0.00,,,0.00,905,Wunderground v.1.15,2013-07-09 22:00:00,
2013-07-09 15:10:00,96.8,55.2,29.98,North,350,3.0,5.0,25,0.00,,,0.00,884,Wunderground v.1.15,2013-07-09 22:10:00,
2013-07-09 15:20:00,98.0,56.2,29.97,NNE,17,1.0,1.0,25,0.00,,,0.00,311,Wunderground v.1.15,2013-07-09 22:20:00,
2013-07-09 15:30:00,97.2,54.4,29.97,NNE,19,3.0,4.0,24,0.00,,,0.00,849,Wunderground v.1.15,2013-07-09 22:30:00,
2013-07-09 15:40:00,97.3,55.6,29.97,North,5,4.0,4.0,25,0.00,,,0.00,826,Wunderground v.1.15,2013-07-09 22:40:00,
2013-07-09 15:50:00,98.1,56.3,29.96,NW,311,2.0,2.0,25,0.00,,,0.00,803,Wunderground v.1.15,2013-07-09 22:50:00,
2013-07-09 16:00:00,98.6,56.7,29.96,NNW,331,2.0,4.0,25,0.00,,,0.00,772,Wunderground v.1.15,2013-07-09 23:00:00,
2013-07-09 16:10:00,97.3,56.7,29.96,NNW,337,4.0,4.0,26,0.00,,,0.00,756,Wunderground v.1.15,2013-07-09 23:10:00,
2013-07-09 16:20:00,97.3,56.7,29.95,NNE,32,5.0,5.0,26,0.00,,,0.00,726,Wunderground v.1.15,2013-07-09 23:20:00,
2013-07-09 16:30:00,98.6,57.8,29.95,NNE,27,3.0,3.0,26,0.00,,,0.00,703,Wunderground v.1.15,2013-07-09 23:30:00,
2013-07-09 16:40:00,97.3,55.6,29.95,North,5,4.0,4.0,25,0.00,,,0.00,367,Wunderground v.1.15,2013-07-09 23:40:00,
2013-07-09 16:50:00,98.5,56.6,29.95,NW,304,2.0,2.0,25,0.00,,,0.00,656,Wunderground v.1.15,2013-07-09 23:50:00,
2013-07-09 17:00:00,98.6,53.2,29.94,NW,304,2.0,2.0,22,0.00,,,0.00,633,Wunderground v.1.15,2013-07-10 00:00:00,
2013-07-09 17:10:00,98.9,46.5,29.94,WSW,238,2.0,4.0,17,0.00,,,0.00,606,Wunderground v.1.15,2013-07-10 00:10:00,
2013-07-09 17:20:00,99.2,46.7,29.94,WNW,295,0.0,0.0,17,0.00,,,0.00,575,Wunderground v.1.15,2013-07-10 00:20:00,
2013-07-09 17:30:00,99.3,41.7,29.93,NW,310,0.0,1.0,14,0.00,,,0.00,148,Wunderground v.1.15,2013-07-10 00:30:00,
2013-07-09 17:40:00,99.5,43.7,29.93,WNW,293,0.0,0.0,15,0.00,,,0.00,30,Wunderground v.1.15,2013-07-10 00:40:00,
2013-07-09 17:50:00,99.4,43.6,29.93,WNW,294,0.0,1.0,15,0.00,,,0.00,28,Wunderground v.1.15,2013-07-10 00:50:00,
2013-07-09 18:00:00,98.8,43.1,29.93,West,281,1.0,1.0,15,0.00,,,0.00,26,Wunderground v.1.15,2013-07-10 01:00:00,
2013-07-09 18:10:00,98.2,42.6,29.92,NW,320,0.0,0.0,15,0.00,,,0.00,26,Wunderground v.1.15,2013-07-10 01:10:00,
2013-07-09 18:20:00,97.4,43.7,29.92,West,272,0.0,1.0,16,0.00,,,0.00,25,Wunderground v.1.15,2013-07-10 01:20:00,
2013-07-09 18:30:00,96.6,46.1,29.92,West,269,0.0,0.0,18,0.00,,,0.00,25,Wunderground v.1.15,2013-07-10 01:30:00,
2013-07-09 18:40:00,95.9,48.4,29.92,WNW,296,0.0,0.0,20,0.00,,,0.00,23,Wunderground v.1.15,2013-07-10 01:40:00,
2013-07-09 18:50:00,95.1,47.7,29.93,NW,316,0.0,0.0,20,0.00,,,0.00,21,Wunderground v.1.15,2013-07-10 01:50:00,
2013-07-09 19:00:00,94.4,50.9,29.92,NNW,329,0.0,0.0,23,0.00,,,0.00,21,Wunderground v.1.15,2013-07-10 02:00:00,
2013-07-09 19:10:00,93.8,51.5,29.93,NW,309,1.0,1.0,24,0.00,,,0.00,19,Wunderground v.1.15,2013-07-10 02:10:00,
2013-07-09 19:20:00,93.1,53.1,29.92,North,5,0.0,0.0,26,0.00,,,0.00,19,Wunderground v.1.15,2013-07-10 02:20:00,
2013-07-09 19:30:00,92.3,53.5,29.93,North,5,0.0,0.0,27,0.00,,,0.00,18,Wunderground v.1.15,2013-07-10 02:30:00,
2013-07-09 19:40:00,91.6,52.9,29.93,WNW,290,0.0,0.0,27,0.00,,,0.00,16,Wunderground v.1.15,2013-07-10 02:40:00,
2013-07-09 19:50:00,90.9,53.3,29.93,West,279,0.0,0.0,28,0.00,,,0.00,14,Wunderground v.1.15,2013-07-10 02:50:00,
2013-07-09 20:00:00,90.0,52.5,29.93,WNW,284,0.0,0.0,28,0.00,,,0.00,12,Wunderground v.1.15,2013-07-10 03:00:00,
2013-07-09 20:10:00,89.2,52.8,29.93,West,274,0.0,0.0,29,0.00,,,0.00,11,Wunderground v.1.15,2013-07-10 03:10:00,
2013-07-09 20:20:00,88.5,53.1,29.93,WNW,284,0.0,0.0,30,0.00,,,0.00,5,Wunderground v.1.15,2013-07-10 03:20:00,
2013-07-09 20:30:00,87.7,53.3,29.94,NW,314,0.0,0.0,31,0.00,,,0.00,0,Wunderground v.1.15,2013-07-10 03:30:00,
2013-07-09 20:40:00,87.1,53.7,29.94,WNW,296,0.0,0.0,32,0.00,,,0.00,0,Wunderground v.1.15,2013-07-10 03:40:00,
2013-07-09 20:50:00,86.4,53.1,29.94,WNW,300,0.0,0.0,32,0.00,,,0.00,0,Wunderground v.1.15,2013-07-10 03:50:00,
2013-07-09 21:00:00,85.4,53.8,29.94,WNW,300,0.0,0.0,34,0.00,,,0.00,0,Wunderground v.1.15,2013-07-10 04:00:00,
2013-07-09 21:10:00,84.7,53.2,29.94,SSW,197,0.0,0.0,34,0.00,,,0.00,0,Wunderground v.1.15,2013-07-10 04:10:00,
2013-07-09 21:20:00,83.9,53.3,29.95,West,274,0.0,0.0,35,0.00,,,0.00,0,Wunderground v.1.15,2013-07-10 04:20:00,
2013-07-09 21:30:00,83.1,52.6,29.95,SW,219,1.0,1.0,35,0.00,,,0.00,0,Wunderground v.1.15,2013-07-10 04:30:00,
2013-07-09 21:40:00,82.5,52.9,29.95,NNW,335,0.0,0.0,36,0.00,,,0.00,0,Wunderground v.1.15,2013-07-10 04:40:00,
2013-07-09 21:50:00,82.0,53.2,29.96,NNW,335,0.0,0.0,37,0.00,,,0.00,0,Wunderground v.1.15,2013-07-10 04:50:00,
2013-07-09 22:00:00,81.5,52.0,29.96,NW,307,0.0,0.0,36,0.00,,,0.00,0,Wunderground v.1.15,2013-07-10 05:00:00,
2013-07-09 22:10:00,80.9,52.2,29.96,NW,307,0.0,0.0,37,0.00,,,0.00,0,Wunderground v.1.15,2013-07-10 05:10:00,
2013-07-09 22:20:00,80.3,51.7,29.96,NW,307,0.0,0.0,37,0.00,,,0.00,0,Wunderground v.1.15,2013-07-10 05:20:00,
2013-07-09 22:30:00,79.7,51.1,29.96,WSW,248,0.0,0.0,37,0.00,,,0.00,0,Wunderground v.1.15,2013-07-10 05:30:00,
2013-07-09 22:40:00,78.5,51.5,29.97,WSW,237,1.0,1.0,39,0.00,,,0.00,0,Wunderground v.1.15,2013-07-10 05:40:00,
2013-07-09 22:50:00,77.7,50.8,29.96,WSW,237,0.0,0.0,39,0.00,,,0.00,0,Wunderground v.1.15,2013-07-10 05:50:00,
2013-07-09 23:00:00,77.0,50.8,29.97,WSW,247,1.0,1.0,40,0.00,,,0.00,0,Wunderground v.1.15,2013-07-10 06:00:00,
2013-07-09 23:10:00,76.1,51.3,29.97,WSW,248,1.0,1.0,42,0.00,,,0.00,0,Wunderground v.1.15,2013-07-10 06:10:00,
2013-07-09 23:20:00,75.5,51.4,29.96,WSW,248,0.0,0.0,43,0.00,,,0.00,0,Wunderground v.1.15,2013-07-10 06:20:00,
2013-07-09 23:30:00,74.9,51.5,29.97,WSW,248,1.0,1.0,44,0.00,,,0.00,0,Wunderground v.1.15,2013-07-10 06:30:00,
2013-07-09 23:40:00,74.7,51.3,29.97,WSW,248,0.0,0.0,44,0.00,,,0.00,0,Wunderground v.1.15,2013-07-10 06:40:00,
2013-07-09 23:50:00,74.3,51.6,29.97,WSW,248,0.0,0.0,45,0.00,,,0.00,0,Wunderground v.1.15,2013-07-10 06:50:00,